P/2010 A2 ( LINEAR ) 2013

Japanese version
Home page
Updated on July 5, 2017

---------------------------------------------------------------------

* Profile

* Orbital Elements

Epoch 2013 May 28.0 TT = JDT 2456440.5
T 2013 May 22.23087 TT                                  MPCW
q   2.0035690            (2000.0)            P               Q
n   0.28431857     Peri.  132.82619     -0.05548135     -0.99674010
a   2.2905120      Node   320.24117     +0.88727438     -0.02231446
e   0.1252746      Incl.    5.25487     +0.45789299     -0.07753218
P   3.47
From 135 observations 2010 Jan. 6-2017 Jan. 28, mean residual 0".3.

* Magnitudes Graph

        H = 21.3  G = 0.15

---------------------------------------------------------------------

The orbital elements are published on M.P.E.C. 2017-M38.
The magnitudes graphs are made with Comet for Windows.

---------------------------------------------------------------------

Copyright(C) Seiichi Yoshida (comet@aerith.net). All rights reserved.